Location: Zagreb
(45.8000°N, 16.0000°E)
Time: 16:49:28
(UTC+02:00)

Transit 2A - All Passes

Search period start: 10 August 2022 00:00
Search period end: 20 August 2022 00:00
Orbit: 601 x 956 km, 66.7° (Epoch: 09 August)

Date Brightness Start Highest point End Pass type
(mag) Time Alt. Az. Time Alt. Az. Time Alt. Az.
10 Aug - 11:16:55 10° ESE 11:18:20 11° ESE 11:19:43 10° E daylight
10 Aug - 12:55:51 10° SSW 13:00:50 86° ESE 13:05:25 10° NE daylight
10 Aug - 14:41:23 10° W 14:44:30 17° NW 14:47:31 10° N daylight
10 Aug - 19:57:31 10° N 20:00:40 19° NE 20:03:51 10° E daylight
10 Aug - 21:39:51 10° NW 21:44:11 66° WSW 21:48:42 10° SSE visible
11 Aug - 12:21:37 10° SSW 12:26:31 58° ESE 12:31:01 10° NE daylight
11 Aug - 14:06:09 10° W 14:09:56 23° NW 14:13:32 10° N daylight
11 Aug - 19:23:37 10° N 19:26:03 14° NE 19:28:30 10° ENE daylight
11 Aug - 21:05:29 10° NNW 21:09:51 82° ENE 21:14:25 10° SE visible
11 Aug - 22:50:51 10° W 22:52:21 12° WSW 22:53:53 10° SW visible
12 Aug - 11:47:37 10° S 11:52:14 39° ESE 11:56:31 10° NE daylight
12 Aug - 13:31:09 10° WSW 13:35:25 30° NW 13:39:26 10° NNE daylight
12 Aug - 18:50:07 10° NNE 18:51:22 11° NNE 18:52:38 10° NE daylight
12 Aug - 20:31:11 10° NNW 20:35:29 55° NE 20:39:56 10° SE visible
12 Aug - 22:15:14 10° WNW 22:18:12 18° WSW 22:21:16 10° SSW visible
13 Aug - 11:13:53 10° SSE 11:18:00 26° ESE 11:21:51 10° NE daylight
13 Aug - 12:56:20 10° WSW 13:00:57 42° NW 13:05:16 10° NNE daylight
13 Aug - 19:56:58 10° NNW 20:01:03 37° NE 20:05:15 10° ESE daylight
13 Aug - 21:40:19 10° NW 21:44:01 27° WSW 21:47:52 10° S visible
14 Aug - 10:40:30 10° SSE 10:43:48 18° ESE 10:46:55 10° ENE daylight
14 Aug - 12:21:41 10° SW 12:26:32 61° NW 12:31:02 10° NNE daylight
14 Aug - 14:08:32 10° WNW 14:10:32 13° NNW 14:12:29 10° N daylight
14 Aug - 19:22:50 10° NNW 19:26:34 27° NE 19:30:23 10° ESE daylight
14 Aug - 21:05:40 10° NW 21:09:47 40° WSW 21:14:05 10° S visible
15 Aug - 10:07:56 10° SE 10:09:38 12° ESE 10:11:19 10° E daylight
15 Aug - 11:47:14 10° SSW 11:52:10 89° WNW 11:56:43 10° NNE daylight
15 Aug - 13:32:56 10° WNW 13:35:53 16° NW 13:38:44 10° N daylight
15 Aug - 18:48:46 10° N 18:52:01 20° NE 18:55:19 10° E daylight
15 Aug - 20:31:10 10° NW 20:35:30 62° WSW 20:40:02 10° SSE visible
16 Aug - 11:12:59 10° SSW 11:17:51 62° ESE 11:22:20 10° NE daylight
16 Aug - 12:57:39 10° W 13:01:18 21° NW 13:04:46 10° N daylight
16 Aug - 18:14:51 10° N 18:17:25 15° NE 18:20:01 10° ENE daylight
16 Aug - 19:56:47 10° NNW 20:01:10 87° ENE 20:05:46 10° SSE daylight
16 Aug - 21:42:28 10° W 21:43:38 11° WSW 21:44:48 10° WSW visible
17 Aug - 10:38:57 10° S 10:43:33 41° ESE 10:47:50 10° NE daylight
17 Aug - 12:22:37 10° WSW 12:26:46 29° NW 12:30:41 10° NNE daylight
17 Aug - 17:41:14 10° NNE 17:42:45 12° NNE 17:44:16 10° NE daylight
17 Aug - 19:22:28 10° NNW 19:26:48 58° NE 19:31:19 10° SE daylight
17 Aug - 21:06:37 10° WNW 21:09:30 17° WSW 21:12:28 10° SSW visible
18 Aug - 10:05:09 10° S 10:09:18 28° ESE 10:13:11 10° NE daylight
18 Aug - 11:47:46 10° WSW 11:52:17 40° NW 11:56:32 10° NNE daylight
18 Aug - 18:48:14 10° NNW 18:52:22 40° NE 18:56:40 10° ESE daylight
18 Aug - 20:31:40 10° WNW 20:35:18 25° WSW 20:39:07 10° SSW visible
19 Aug - 09:31:43 10° SSE 09:35:05 19° ESE 09:38:18 10° ENE daylight
19 Aug - 11:13:06 10° SW 11:17:52 58° NW 11:22:18 10° NNE daylight
19 Aug - 13:00:11 10° NW 13:01:54 12° NNW 13:03:36 10° N daylight
19 Aug - 18:14:05 10° NNW 18:17:54 28° NE 18:21:50 10° ESE daylight
19 Aug - 19:56:59 10° NW 20:01:05 38° WSW 20:05:22 10° S daylight
